Weather History for Charlottesville, VA

Change the Weather History Date:

Wednesday, October 3, 2012

  Actual Average Record
Temperature  
Mean Temperature 75 °F 60 °F  
Max Temperature 83 °F 72 °F 94 °F (1919)
Min Temperature 67 °F 49 °F 28 °F (2003)
Degree Days  
Heating Degree Days 0 6  
Month to date heating degree days 8 16  
Since 1 July heating degree days 47 74  
Cooling Degree Days 10 1  
Month to date cooling degree days 10 3  
Year to date cooling degree days 1594 1024  
Growing Degree Days 24 (Base 50)    
Moisture  
Dew Point 67 °F    
Average Humidity 81    
Maximum Humidity 100    
Minimum Humidity 62    
Precipitation  
Precipitation T in 0.11 in 0.08 in (2011)
Month to date precipitation 1.46 0.34  
Year to date precipitation 30.34 32.96  
Sea Level Pressure  
Sea Level Pressure 30.04 in    
Wind  
Wind Speed 3 mph (South)    
Max Wind Speed 12 mph    
Max Gust Speed 18 mph    
Visibility 5 miles    
Events Fog    
T = Trace of Precipitation, MM = Missing Value Source: NWS Daily Summary

Daily Weather History Graph

Daily Weather History Graph

Search for Another Location

Airport:

Trip Planner

Search our weather history database for the weather conditions in past years. The results will help you decide how hot, cold, wet, or windy it might be!

Date:

Astronomy

Oct. 03, 2012 Rise Set
Actual Time 7:11 AM EDT 6:52 PM EDT
Civil Twilight 6:45 AM EDT 7:19 PM EDT
Nautical Twilight 6:14 AM EDT 7:49 PM EDT
Astronomical Twilight 5:44 AM EDT 8:20 PM EDT
Moon 8:47 PM EDT (10/3) 10:29 AM EDT (10/3)
Length of Visible Light 12h 33m
Length of Day
11h 41m
Waning Gibbous, 89% of the Moon is Illuminated
Oct 3
Waning Gibbous
Oct 8
Last Quarter
Oct 15
New
Oct 21
First Quarter
Oct 29
Full

Hourly Weather History & Observations

Time (EDT) Temp. Heat Index Dew Point Humidity Pressure Visibility Wind Dir Wind Speed Gust Speed Precip Events Conditions
12:25 AM 66.2 °F - 66.2 °F 100% 29.96 in 3.0 mi Calm Calm - N/A   Overcast
12:53 AM 68.0 °F - 66.0 °F 93% 29.95 in 7.0 mi Calm Calm - N/A   Overcast
1:20 AM 66.2 °F - 66.2 °F 100% 29.97 in 6.0 mi Calm Calm - N/A   Overcast
1:40 AM 68.0 °F - 66.2 °F 94% 29.97 in 4.0 mi Calm Calm - N/A   Overcast
1:53 AM 66.9 °F - 66.0 °F 97% 29.96 in 4.0 mi Calm Calm - N/A   Overcast
2:53 AM 66.9 °F - 66.0 °F 97% 29.98 in 3.0 mi South 3.5 mph - N/A   Overcast
3:05 AM 66.2 °F - 66.2 °F 100% 29.99 in 1.8 mi Calm Calm - N/A   Overcast
3:45 AM 66.2 °F - 66.2 °F 100% 30.00 in 0.8 mi Calm Calm - N/A   Mist
3:53 AM 66.9 °F - 66.0 °F 97% 29.99 in 0.5 mi Calm Calm - N/A Fog Fog
4:50 AM 66.2 °F - 66.2 °F 100% 30.02 in 1.2 mi Calm Calm - N/A   Overcast
4:53 AM 66.9 °F - 66.0 °F 97% 30.00 in 1.5 mi Calm Calm - N/A   Overcast
5:19 AM 66.2 °F - 66.2 °F 100% 30.02 in 0.8 mi Calm Calm - N/A   Mist
5:53 AM 66.9 °F - 66.0 °F 97% 30.01 in 0.5 mi South 3.5 mph - N/A Fog Fog
6:53 AM 66.9 °F - 66.0 °F 97% 30.03 in 0.2 mi Calm Calm - N/A Fog Fog
7:53 AM 66.9 °F - 66.0 °F 97% 30.05 in 0.2 mi Calm Calm - N/A Fog Fog
8:53 AM 66.9 °F - 66.0 °F 97% 30.07 in 0.2 mi SSW 4.6 mph - N/A Fog Fog
9:53 AM 68.0 °F - 66.9 °F 96% 30.09 in 1.0 mi SSW 5.8 mph - N/A   Overcast
10:16 AM 68.0 °F - 66.2 °F 94% 30.10 in 3.0 mi SW 3.5 mph - N/A   Mostly Cloudy
10:53 AM 71.1 °F - 68.0 °F 90% 30.09 in 6.0 mi South 4.6 mph - N/A   Mostly Cloudy
11:21 AM 73.4 °F - 68.0 °F 83% 30.10 in 10.0 mi Variable 3.5 mph - N/A   Partly Cloudy
11:53 AM 75.0 °F - 66.9 °F 76% 30.09 in 10.0 mi South 3.5 mph - N/A   Clear
1:53 PM 78.1 °F - 68.0 °F 71% 30.06 in 10.0 mi South 11.5 mph - N/A   Scattered Clouds
2:53 PM 81.0 °F 83.3 °F 66.9 °F 62% 30.05 in 10.0 mi SSE 11.5 mph - N/A   Scattered Clouds
3:53 PM 80.1 °F 82.3 °F 66.9 °F 64% 30.05 in 10.0 mi South 6.9 mph - N/A   Scattered Clouds
4:53 PM 81.0 °F 83.3 °F 66.9 °F 62% 30.06 in 10.0 mi South 6.9 mph - N/A   Scattered Clouds
5:53 PM 79.0 °F - 66.9 °F 66% 30.07 in 10.0 mi South 6.9 mph - N/A   Clear
6:53 PM 75.9 °F - 68.0 °F 76% 30.08 in 10.0 mi Calm Calm - N/A   Clear
7:53 PM 73.9 °F - 68.0 °F 82% 30.09 in 10.0 mi SSE 3.5 mph - N/A   Clear
8:53 PM 73.0 °F - 69.1 °F 87% 30.09 in 10.0 mi Calm Calm - N/A   Clear
9:53 PM 73.9 °F - 68.0 °F 82% 30.11 in 10.0 mi Calm Calm - N/A   Clear
11:53 PM 71.1 °F - 69.1 °F 93% 30.12 in 9.0 mi Calm Calm - N/A   Partly Cloudy